Groton, CT

6:06 PM EST on February 24, 2017 (GMT -0500)
Groton-New London

Weather History for KGON - July, 2012

Change the Weather History Date:

Sunday, July 8, 2012

  Actual Average Record
Temperature  
Mean Temperature 76 °F -  
Max Temperature 84 °F 80 °F 92 °F (1981)
Min Temperature 69 °F 60 °F 52 °F (1960)
Cooling Degree Days 12    
Growing Degree Days 26 (Base 50)    
Moisture  
Dew Point 65 °F    
Average Humidity 67    
Maximum Humidity 81    
Minimum Humidity 43    
Precipitation  
Precipitation 0.00 in - - ()
Sea Level Pressure  
Sea Level Pressure 29.81 in    
Wind  
Wind Speed 5 mph (West)    
Max Wind Speed 12 mph    
Max Gust Speed -    
Visibility 9 miles    
Events      
Averages and records for this station are not official NWS values.
T = Trace of Precipitation, MM = Missing Value Source: NWS Daily Summary

Daily Weather History Graph

Daily Weather History Graph

Search for Another Location

Airport or City:

Trip Planner

Search our weather history database for the weather conditions in past years. The results will help you decide how hot, cold, wet, or windy it might be!

Date:

Astronomy

Jul. 08, 2012 Rise Set
Actual Time 5:23 AM EDT 8:23 PM EDT
Civil Twilight 4:49 AM EDT 8:56 PM EDT
Nautical Twilight 4:07 AM EDT 9:38 PM EDT
Astronomical Twilight 3:17 AM EDT 10:28 PM EDT
Moon 11:04 PM EDT (7/8) 10:51 AM EDT (7/8)
Length of Visible Light 16h 06m
Length of Day
15h 00m
Waning Gibbous, 73% of the Moon is Illuminated
Jul 8
Waning Gibbous
Jul 10
Last Quarter
Jul 19
New
Jul 26
First Quarter
Aug 1
Full

Hourly Weather History & Observations

Time (EDT) Temp. Heat Index Dew Point Humidity Pressure Visibility Wind Dir Wind Speed Gust Speed Precip Events Conditions
12:56 AM 75.0 °F - 66.9 °F 76% 29.79 in 9.0 mi Calm Calm - N/A   Overcast
1:56 AM 73.9 °F - 64.0 °F 71% 29.80 in 10.0 mi NW 4.6 mph - N/A   Mostly Cloudy
2:56 AM 73.9 °F - 63.0 °F 68% 29.78 in 10.0 mi Calm Calm - N/A   Mostly Cloudy
3:56 AM 71.1 °F - 63.0 °F 75% 29.79 in 10.0 mi North 3.5 mph - N/A   Clear
4:56 AM 70.0 °F - 63.0 °F 78% 29.81 in 10.0 mi North 3.5 mph - N/A   Clear
5:56 AM 69.1 °F - 63.0 °F 81% 29.81 in 8.0 mi North 3.5 mph - N/A   Partly Cloudy
6:56 AM 71.1 °F - 64.0 °F 78% 29.82 in 10.0 mi North 4.6 mph - N/A   Mostly Cloudy
7:56 AM 75.0 °F - 64.0 °F 69% 29.83 in 9.0 mi North 10.4 mph - N/A   Clear
8:56 AM 80.1 °F 81.7 °F 64.0 °F 58% 29.84 in 10.0 mi North 11.5 mph - N/A   Clear
9:56 AM 82.9 °F 84.4 °F 64.0 °F 53% 29.83 in 10.0 mi NW 6.9 mph - N/A   Clear
10:56 AM 79.0 °F - 66.9 °F 66% 29.83 in 9.0 mi SSW 9.2 mph - N/A   Clear
11:56 AM 80.1 °F 82.7 °F 68.0 °F 67% 29.83 in 10.0 mi SW 9.2 mph - N/A   Clear
12:56 PM 82.0 °F 84.5 °F 66.9 °F 60% 29.83 in 9.0 mi SW 10.4 mph - N/A   Clear
1:56 PM 79.0 °F - 68.0 °F 69% 29.82 in 8.0 mi SSW 6.9 mph - N/A   Clear
2:56 PM 82.0 °F 84.1 °F 66.0 °F 58% 29.81 in 9.0 mi WSW 10.4 mph - N/A   Partly Cloudy
3:56 PM 79.0 °F - 66.0 °F 64% 29.80 in 8.0 mi SSW 10.4 mph - N/A   Clear
4:56 PM 84.0 °F 83.8 °F 59.0 °F 43% 29.80 in 10.0 mi WSW 9.2 mph - N/A   Clear
5:56 PM 82.9 °F 83.3 °F 61.0 °F 47% 29.78 in 10.0 mi WSW 5.8 mph - N/A   Clear
6:56 PM 78.1 °F - 64.9 °F 64% 29.79 in 9.0 mi SW 5.8 mph - N/A   Mostly Cloudy
7:56 PM 78.1 °F - 64.9 °F 64% 29.80 in 9.0 mi WSW 6.9 mph - N/A   Mostly Cloudy
8:56 PM 77.0 °F - 66.9 °F 71% 29.82 in 9.0 mi WSW 3.5 mph - N/A   Mostly Cloudy
9:56 PM 77.0 °F - 66.0 °F 69% 29.83 in 10.0 mi West 4.6 mph - N/A   Mostly Cloudy
10:56 PM 75.9 °F - 66.9 °F 74% 29.84 in 9.0 mi West 5.8 mph - N/A   Mostly Cloudy
11:56 PM 73.9 °F - 66.0 °F 76% 29.85 in 9.0 mi NW 4.6 mph - N/A   Clear